This is the latest recevied weather packets stored in our database for station/object N8QF-1. If no packets are shown the sender has not sent any weather packets the latest 1 day(s).
| Time | Temp. | Humidity | Pressure | Rain* | Wind** | Luminosity | Snow |
|---|---|---|---|---|---|---|---|
| 1836274699 | 21.67° C | 57% | 1018.4 hPa | 0 mm | 0 m/s | - | - |
| 1836274550 | 21.67° C | 58% | 1018.6 hPa | 0 mm | 0 m/s | - | - |
| 1836274398 | 21.67° C | 57% | 1018.4 hPa | 0 mm | 0 m/s | - | - |
| 1836274249 | 21.67° C | 58% | 1018.4 hPa | 0 mm | 0 m/s | - | - |
| 1836274098 | 22.22° C | 57% | 1018.4 hPa | 0 mm | 0 m/s | - | - |
| 1778049151 | 8.89° C | 97% | 1007.5 hPa | 3.3 mm | 2.24 m/s, 25° | - | - |
| 1778048551 | 8.89° C | 97% | 1007.6 hPa | 3.3 mm | 2.68 m/s, 37° | - | - |
| 1778048248 | 8.89° C | 97% | 1007.5 hPa | 3.3 mm | 3.13 m/s, 15° | - | - |
| 1778047947 | 8.89° C | 97% | 1007.3 hPa | 3.3 mm | 3.13 m/s, 25° | - | - |
| 1778047346 | 8.89° C | 97% | 1007.4 hPa | 3.3 mm | 1.79 m/s, 0° | - | - |
| 1778047046 | 8.89° C | 97% | 1007.5 hPa | 3.3 mm | 2.68 m/s, 319° | - | - |
| 1778046445 | 8.33° C | 96% | 1007.3 hPa | 3.56 mm | 6.26 m/s, 346° | - | - |
| 1778046143 | 8.89° C | 97% | 1007.4 hPa | 3.56 mm | 2.24 m/s, 359° | - | - |
| 1778045843 | 8.89° C | 96% | 1007.8 hPa | 3.56 mm | 4.47 m/s, 353° | - | - |
| 1778045543 | 8.89° C | 97% | 1007.6 hPa | 3.56 mm | 4.47 m/s, 314° | - | - |
| 1778045241 | 8.89° C | 97% | 1007.2 hPa | 3.56 mm | 5.36 m/s, 1° | - | - |
| 1778044338 | 8.89° C | 97% | 1008.1 hPa | 3.56 mm | 5.81 m/s, 322° | - | - |
| 1778044039 | 9.44° C | 97% | 1007.7 hPa | 3.56 mm | 4.92 m/s, 301° | - | - |
| 1778043438 | 10° C | 98% | 1007.5 hPa | 3.56 mm | 1.79 m/s, 359° | - | - |
| 1778043137 | 10° C | 98% | 1007.4 hPa | 1.52 mm | 3.13 m/s, 319° | - | - |
| 1778042535 | 10° C | 100% | 1007.3 hPa | 1.52 mm | 4.47 m/s, 332° | - | - |
| 1778042235 | 10° C | 99% | 1007.2 hPa | 1.52 mm | 3.58 m/s, 346° | - | - |
| 1778041934 | 10° C | 98% | 1007.3 hPa | 1.52 mm | 3.13 m/s, 321° | - | - |
| 1778041634 | 10° C | 98% | 1007.5 hPa | 1.52 mm | 4.92 m/s, 6° | - | - |
| 1778041333 | 10° C | 100% | 1007.5 hPa | 1.52 mm | 2.68 m/s, 315° | - | - |
* Rain latest hour (hover to see other rain measurements)
** Current wind speed in m/s (hover to see current wind gust speed)